Location: Newark
(47.3150°N, 5.1150°E)
Time: 23:28:06
(UTC+00:00)

ISS - Pass Details

Date: 28 October 2019
Orbit: 412 x 421 km, 51.6° (Epoch: 16 November)

Event Time Altitude Azimuth Distance (km) Brightness Sun altitude
Exits shadow 04:43:18 26° 218° (SW) 879 -2.5 -16.3°
Maximum altitude 04:44:58 56° 149° (SSE) 507 -3.2 -16.0°
Drops below altitude 10° 04:48:18 10° 70° (ENE) 1,508 0.2 -15.4°
Sets 04:50:25 0° 66° (ENE) 2,374 1.3 -15.1°
